Location: Unspecified
(0.0000°N, 0.0000°E)
Time: 05:20:16
(UTC+00:00)

Hubble Space Telescope - Pass Details

Date: 01 December 2020
Orbit: 536 x 540 km, 28.5° (Epoch: 03 December)

Event Time Altitude Azimuth Distance (km) Brightness Sun altitude
Exits shadow 03:09:27 12° 120° (ESE) 1,685 4.0 -36.5°
Drops below altitude 10° 03:09:36 11° 120° (ESE) 1,743 4.1 -36.5°
Sets 03:11:58 0° 120° (ESE) 2,675 5.3 -36.0°
